Location: Philomena
(55.1756°N, 111.6233°W)
Time: 10:15:02
(UTC+00:00)

PCSat - Pass Details

Date: 09 December 2023
Orbit: 784 x 791 km, 67.0° (Epoch: 23 February)

Event Time Altitude Azimuth Distance (km) Brightness Sun altitude
Exits shadow 13:48:39 21° 302° (WNW) 1,718 10.7 -14.5°
Maximum altitude 13:50:59 28° 341° (NNW) 1,444 10.6 -14.2°
Drops below altitude 10° 13:55:39 10° 40° (NE) 2,366 12.3 -13.5°
Sets 13:58:24 0° 52° (NE) 3,298 13.2 -13.2°
